MONITOR-4 (RS57S)

Last updated on Sun Jun 21 2026 00:03:20 GMT+0000 (Coordinated Universal Time)

1 57182U 23091S 26171.45181046 .00008870 00000+0 32683-3 0 9991 2 57182 97.5073 234.8934 0013052 91.1607 269.1128 15.27982067164797
UTC large
Height (km)
Speed (km/s)
/
Latitude / Longitude
Inclination (degrees)
Orbital Period (minutes)
Azimuth
Elevation
Range (km)
Doppler Factor

Next 0 passes for location: London (51.5072 / 0.1276)

No passes found over London.
MONITOR-4 (RS57S)